Regional Weather Roundup
Issued by NWS

Home | Current Version | Previous Version | Text Only | Print | Product List | Glossary On
Versions: 1 2 3 4 5 6 7 8 9 10 11 12 13 14 15 16 17 18 19 20 21 22 23 24 25 26 27 28 29 30 31 32 33 34 35 36 37 38 39 40 41 42 43 44 45 46 47 48 49 50
000
ASUS45 KTFX 291719
RWRMT
MONTANA HOURLY WEATHER ROUNDUP
NATIONAL WEATHER SERVICE GREAT FALLS MT
1019 AM MST THU JAN 29 2015

NOTE: "FAIR" INDICATES FEW OR NO CLOUDS BELOW 12000 FEET WITH NO
SIGNIFICANT WEATHER AND/OR OBSTRUCTIONS TO VISIBILITY.

* THESE STATIONS ARE NOT UNDER NWS QUALITY CONTROL. THEY DO NOT
   REPORT WEATHER SUCH AS PRECIPITATION OR FOG.

MTZ001>007-043-291800-
WEST OF THE DIVIDE
CITY           SKY/WX    TMP DP  RH WIND       PRES   REMARKS
KALISPELL      PTSUNNY   16  12  84 CALM      30.44F
MISSOULA       FOG       19  19 100 CALM      30.47S VSB 3
BUTTE          SUNNY     21  19  92 CALM      30.40F
MULLAN PASS    PTSUNNY   28  19  69 S6        30.32F WCI  21
* ANACONDA     PTCLDY    30  19  64 S5         N/A   WCI  25
* ESSEX        N/A       18  16  92 N/A        N/A
* EUREKA APT   PTCLDY    25  23  92 CALM      30.47S VSB 1 1/4
* HAMILTON APT PTCLDY    32  21  64 S7        30.43F WCI  25
* LIBBY APT    PTSUNNY   28  28 100 CALM      30.48S VSB 2
* LINCOLN      N/A       15  11  84 NE2        N/A
* LOOKOUT PASS N/A       25  24  96 SE4G9      N/A
* POLSON       N/A       26  25  96 N/A        N/A
* RONAN APT    PTCLDY    18  18 100 N/A        N/A
* SEELEY LAKE  N/A        9   5  84 N/A        N/A
* THOMP F APT  PTSUNNY   28  22  78 E3G8       N/A
* YAAK HILL    N/A       30  28  92 S2         N/A
$$

MTZ008-052>055-291800-
SOUTHWEST MONTANA
CITY           SKY/WX    TMP DP  RH WIND       PRES   REMARKS
BOZEMAN        SUNNY     30  25  82 CALM      30.43S
DILLON         SUNNY     28  23  81 SW8       30.42S WCI  20
* W YELLOWSTON SUNNY     25  23  92 N1         N/A
* THREE FORKS  SUNNY     27   0  31 N/A        N/A
* BOULDER HILL N/A       24  17  75 SW12       N/A   WCI  13
* MONIDA PASS  N/A       22  22 100 NE7        N/A   WCI  13
* RAYNOLDS PAS N/A       19   7  59 S8         N/A   WCI   9
* WHITEHALL    N/A       26  21  81 W3         N/A
* WISE RIVER   N/A       15  10  80 W4         N/A
$$

MTZ009>010-012-014-046-048-049-054-291800-
EAST SLOPES AND CENTRAL MONTANA
CITY           SKY/WX    TMP DP  RH WIND       PRES   REMARKS
CUT BANK       SUNNY     28  25  89 S3        30.27F
GREAT FALLS    SUNNY     37  27  67 S9        30.31F WCI  30
HELENA         PTCLDY    30  25  82 CALM      30.42S
MALMSTROM AFB  SUNNY     36  28  73 SW8       30.33F WCI  30
* CONRAD       SUNNY     21  18  88 CALM       N/A
* DEARBORN     N/A       40  22  49 S8G17      N/A   WCI  35
* EAST GLACIER N/A       33  21  61 W27G34     N/A   WCI  20
* MONARCH      N/A       34  17  50 S4G11      N/A
* PENDROY      N/A       36  21  54 SW2        N/A
* ROGERS PASS  N/A       28  20  72 SE9G17     N/A   WCI  19
* SWEET GRASS  N/A       24  24 100 S11        N/A   WCI  13
* WHITE SULPH  N/A       34  24  67 SW6G11     N/A   WCI  29
$$

MTZ011-013-016-021-035-040-045-047-050-051-291800-
NORTH CENTRAL MONTANA
CITY           SKY/WX    TMP DP  RH WIND       PRES   REMARKS
HAVRE          FOG       21  21 100 CALM      30.36F VSB M1/4
LEWISTOWN      SUNNY     32  25  75 SE6       30.33F WCI  26
* N BAR RANCH  SUNNY     34  25  70 NW5       30.36F WCI  29
* CHINOOK      SUNNY     28  27  96 CALM      30.37S
* CHESTER      N/A       25  23  92 N/A        N/A
* DENTON       N/A       35  26  70 N/A        N/A
* GEYSER       N/A       34  25  70 W2         N/A
* JUDITH GAP   N/A       31  29  92 SE13       N/A   WCI  21
* LOMA         N/A       25  24  96 N/A        N/A
$$

MTZ017>020-022>027-061-062-291800-
NORTHEAST MONTANA
CITY           SKY/WX    TMP DP  RH WIND       PRES   REMARKS
GLASGOW        FOG       25  23  92 SE10      30.44F VSB M1/4 WCI  15
GLENDIVE       PTCLDY    28  25  89 S8        30.48S WCI  20
JORDAN         SUNNY     28  27  96 CALM      30.42F
SIDNEY         PTCLDY    28  19  69 SW3       30.51S
WOLF POINT     FOG       25  23  92 CALM      30.48S VSB 1 1/4
* BEAVER HILL  N/A       27  22  81 SW9        N/A   WCI  18
* CIRCLE       N/A       27  26  96 N/A        N/A
* LINDSAY DVD  N/A       28  26  92 NW10       N/A   WCI  19
* NAVAJO       N/A       21  17  84 NW3        N/A
* PLENTYWOOD A PTCLDY    19  16  88 CALM      30.48R
* POPLAR APT   PTCLDY    27  25  92 N/A       30.48S
* SACO         N/A       22  20  92 NE6        N/A   WCI  14
* SCOBEY APT   PTCLDY    23  16  74 N/A        N/A
$$

MTZ028>042-056>058-291800-
SOUTHCENTRAL AND SOUTHEAST MONTANA
CITY           SKY/WX    TMP DP  RH WIND       PRES   REMARKS
BAKER          FOG       27  25  92 W7        30.47R VSB 3    WCI  19
BILLINGS       SUNNY     32  25  75 SW9       30.40F WCI  24
LIVINGSTON     SUNNY     39  23  53 W16G24    30.37F WCI  30
MILES CITY     SUNNY     27  25  92 S7        30.46F WCI  19
* BIG TIMBER A SUNNY     37  25  62 SW12      30.39S WCI  29
* FORSYTH APT  SUNNY     34  30  85 CALM      30.45S
* LAUREL APT   SUNNY     34  21  59 N/A        N/A
* ROUNDUP APT  SUNNY     28  23  81 S7         N/A   WCI  21
* ALZADA       N/A       32  28  85 SW6        N/A   WCI  26
* HYSHAM       N/A       39  27  62 S4         N/A
* LAME DEER    N/A       35  22  59 SE6        N/A   WCI  30
* REED POINT   N/A       29  27  92 W2         N/A
* ROSCOE HILL  N/A       39  11  31 SW2        N/A
$$

REGIONAL REPORTS...DAKOTAS
CITY           SKY/WX    TMP DP  RH WIND       PRES   REMARKS
WILLISTON      CLOUDY    25  18  75 NW7       30.50R WCI  17
DICKINSON      PTCLDY    30  21  69 W14       30.43R WCI  19
BEACH          PTSUNNY   27  25  92 W10       30.47R WCI  18
CROSBY         CLOUDY    21  19  92 N8        30.49R WCI  11
TIOGA          CLOUDY    23  23 100 N10       30.49R WCI  13
WATFORD CITY   PTSUNNY   23  18  81 W8        30.47R WCI  14
BISMARCK       CLOUDY    28  19  69 N7        30.49R WCI  21
GRAND FORKS    CLOUDY    12   5  73 N21       30.51R WCI  -7
FARGO          LGT SNOW  18   7  62 N25       30.47R
BUFFALO SD     SUNNY     32  25  75 W14       30.40R WCI  22
RAPID CITY     SUNNY     34  21  59 SE3       30.47R
$$

REGIONAL REPORTS...WYOMING/IDAHO/WASHINGTON
CITY           SKY/WX    TMP DP  RH WIND       PRES   REMARKS
GILLETTE       SUNNY     37  21  52 SW7       30.45S WCI  32
SHERIDAN       SUNNY     34  25  70 CALM      30.43S
CODY           SUNNY     37  23  57 SW14      30.40S WCI  28
YELLOWSTONE LA SUNNY     18  18 100 CALM      30.45F
SALMON         CLOUDY   N/A N/A N/A CALM      30.49F VSB 2
MULLAN PASS    PTSUNNY   28  19  69 S6        30.32S WCI  21
SAND POINT     FOG       32  32 100 CALM      30.47R
SPOKANE        FOG       30  30 100 N7        30.42S VSB M1/4 WCI  23
$$

REGIONAL REPORTS...ALBERTA
CITY           SKY/WX    TMP DP  RH WIND       PRES   REMARKS
CALGARY        PTCLDY    28  25  89 S7        30.20F WCI  21
LETHBRIDGE     SUNNY     36  25  64 S17       30.25S WCI  26
MEDICINE HAT   SUNNY     28  27  96 SE2       30.29F
EDMONTON       FOG       23  21  92 S9        30.24F VSB 2    WCI  13
WATERTON GATE  N/A       37  21  52 SW26G38    N/A   WCI  25
CARDSTON       N/A       37  21  52 SW1        N/A
MILK RIVER     N/A       30  27  89 S8         N/A   WCI  22
$$

REGIONAL REPORTS...SASKATCHEWAN
CITY           SKY/WX    TMP DP  RH WIND       PRES   REMARKS
SWIFT CURRENT  PTSUNNY   21  19  92 SE12      30.36S WCI   9
MOOSE JAW      LGT SNOW  16  12  84 SE3       30.48S
REGINA         LGT SNOW  14   9  80 CALM      30.49R
VAL MARIE      N/A       25  23  92 CALM       N/A
ASSINIBOIA     N/A       18  12  77 SE3        N/A
CORONACH       N/A       19  18  96 W1         N/A

$$



USA.gov is the U.S. government's official web portal to all federal, state and local government web resources and services.